Date,TemperatureHighF,TemperatureAvgF,TemperatureLowF,DewpointHighF,DewpointAvgF,DewpointLowF,HumidityHigh,HumidityAvg,HumidityLow,PressureMaxIn,PressureMinIn,WindSpeedMaxMPH,WindSpeedAvgMPH,GustSpeedMaxMPH,PrecipitationSumIn
2013-1-1,42,37,30,41,35,27,96,92,89,30.22,30.02,5,1,17,0.33
2013-1-2,34,29,24,26,23,21,90,79,58,30.31,30.20,5,1,10,0.00
2013-1-3,43,31,19,30,25,18,96,79,54,30.44,30.28,4,0,8,0.00
2013-1-4,47,33,22,32,26,20,96,79,49,30.52,30.41,4,0,8,0.00
2013-1-5,45,37,26,37,31,25,94,80,64,30.42,30.27,5,1,12,0.00
2013-1-6,50,39,28,38,34,26,97,84,56,30.40,30.25,6,1,12,0.00
2013-1-7,51,35,25,29,26,22,94,73,39,30.44,30.23,9,1,16,0.00
2013-1-8,57,46,28,46,36,26,90,68,51,30.29,30.16,8,1,14,0.00
2013-1-9,56,54,51,54,52,46,97,93,71,30.35,30.21,10,3,16,0.92
2013-1-10,67,61,55,64,60,54,97,95,88,30.27,29.89,14,5,42,1.21
2013-1-11,67,61,54,61,54,50,95,79,56,30.04,29.92,7,2,13,0.00
2013-1-12,72,68,63,67,65,61,98,91,82,29.95,29.73,11,3,15,0.21
2013-1-13,70,42,30,65,40,27,95,92,82,30.27,29.73,8,2,18,3.48
2013-1-14,30,28,26,27,24,22,89,85,78,30.41,30.27,6,2,15,0.00
2013-1-15,30,28,25,29,26,22,95,92,87,30.29,30.08,6,2,11,0.00
2013-1-16,32,30,28,30,29,27,95,93,91,30.21,30.07,3,0,6,0.00
2013-1-17,46,37,31,36,32,28,94,82,65,30.49,30.15,7,1,12,0.06
2013-1-18,53,38,22,31,27,20,96,68,33,30.58,30.36,4,0,7,0.00
2013-1-19,56,46,38,37,33,29,81,62,42,30.36,30.18,10,2,14,0.00
2013-1-20,59,46,31,38,33,29,93,64,38,30.28,30.16,7,1,12,0.00
2013-1-21,43,34,22,28,20,16,86,60,35,30.36,30.18,8,2,13,0.00
2013-1-22,39,31,20,20,18,16,91,62,42,30.45,30.33,6,1,10,0.00
2013-1-23,55,40,27,42,31,18,92,69,51,30.36,30.18,3,1,8,0.00
2013-1-24,44,39,35,41,26,19,95,59,46,30.44,30.22,7,3,15,0.00
2013-1-25,50,39,31,45,33,23,95,80,49,30.26,30.05,7,1,11,0.06
2013-1-26,55,43,29,36,32,28,97,70,38,30.35,30.25,8,1,10,0.01
2013-1-27,64,55,47,54,46,35,82,70,61,30.26,30.12,8,2,14,0.00
2013-1-28,72,63,58,61,57,53,91,81,69,30.17,30.05,13,4,17,0.00
2013-1-29,75,68,60,65,61,57,96,79,61,30.05,29.45,20,6,28,1.30
2013-1-30,60,47,33,56,41,26,97,80,62,30.05,29.53,14,4,24,1.54
2013-1-31,54,40,26,35,29,22,91,66,41,30.35,30.05,10,2,16,0.00
2013-2-1,37,29,21,17,12,8,65,50,32,30.56,30.32,7,1,13,0.00
2013-2-2,51,37,26,36,28,15,93,71,50,30.32,30.15,7,1,9,0.01
2013-2-3,53,44,35,35,31,26,88,63,37,30.21,30.12,9,1,18,0.00
2013-2-4,57,46,34,44,34,27,89,66,39,30.12,29.92,9,2,17,0.06
2013-2-5,63,48,38,50,43,36,97,84,53,30.07,29.93,2,0,7,0.01
2013-2-6,61,50,36,46,42,35,97,75,55,30.21,30.04,8,2,14,0.00
2013-2-7,68,58,50,55,49,39,95,73,59,30.04,29.87,9,1,12,0.27
2013-2-8,56,44,32,55,39,29,96,83,70,30.31,29.90,9,3,23,0.26
2013-2-9,51,41,27,39,33,26,95,74,57,30.33,30.05,8,2,14,0.01
2013-2-10,60,56,51,58,49,38,95,81,55,30.04,29.75,12,4,23,1.03
2013-2-11,57,50,44,52,34,28,87,58,33,30.21,29.97,3,0,12,0.00
2013-2-12,51,46,40,40,37,34,91,71,51,30.16,29.80,8,2,15,0.02
2013-2-13,44,41,38,41,38,35,95,90,79,30.04,29.78,6,1,10,0.07
2013-2-14,60,47,36,42,38,34,95,72,42,30.08,30.01,8,2,14,0.01
2013-2-15,54,44,33,39,32,25,95,66,34,30.21,30.06,9,1,15,0.00
2013-2-16,38,33,25,26,21,17,75,60,46,30.29,30.21,5,1,15,0.00
2013-2-17,56,43,31,32,26,19,66,51,36,30.28,30.08,9,2,16,0.00
2013-2-18,58,51,46,52,43,32,94,74,56,30.09,29.77,16,5,25,1.30
2013-2-19,49,40,30,39,28,22,84,64,39,30.29,29.98,7,1,16,0.00
2013-2-20,37,33,30,26,19,14,78,56,44,30.36,30.19,8,2,13,0.01
2013-2-21,46,38,32,44,32,23,95,78,51,30.20,29.76,14,4,20,0.81
2013-2-22,50,41,36,40,37,32,97,87,69,30.10,29.89,6,0,10,0.01
2013-2-23,50,38,30,32,29,27,90,72,45,30.08,29.97,6,1,12,0.00
2013-2-24,58,43,27,34,30,25,94,63,37,30.12,29.91,8,2,15,0.00
2013-2-25,58,52,42,54,40,28,94,66,47,29.91,29.32,17,6,25,0.74
2013-2-26,53,44,40,50,38,33,91,80,70,29.83,29.34,15,4,24,0.00
2013-2-27,46,42,39,36,33,30,77,72,63,29.99,29.84,8,2,14,0.00
2013-2-28,44,38,33,31,29,27,81,68,57,30.12,29.99,7,1,15,0.00
2013-3-1,37,35,32,30,28,26,83,76,68,30.18,30.10,5,1,14,0.00
2013-3-2,34,31,25,28,25,21,89,76,64,30.27,30.16,7,1,14,0.00
2013-3-3,48,34,18,27,22,16,94,65,36,30.26,30.08,6,1,10,0.00
2013-3-4,68,54,37,50,34,24,69,49,27,30.08,29.77,12,4,25,0.00
2013-3-5,62,49,37,57,38,24,92,68,41,30.19,29.76,14,3,22,0.43
2013-3-6,46,38,32,28,26,22,82,63,49,30.37,30.19,9,2,15,0.00
2013-3-7,54,41,31,32,30,27,88,66,41,30.41,30.29,7,1,9,0.00
2013-3-8,64,49,34,34,30,25,81,52,25,30.40,30.18,9,1,14,0.00
2013-3-9,70,60,51,41,34,27,48,38,27,30.17,29.92,10,3,17,0.00
2013-3-10,65,58,49,58,51,41,96,79,45,29.95,29.75,17,4,29,1.25
2013-3-11,48,41,31,45,34,29,94,77,61,30.05,29.84,8,2,15,0.00
2013-3-12,56,41,26,36,29,22,97,67,31,30.23,30.04,6,1,10,0.00
2013-3-13,50,42,31,32,27,24,84,56,39,30.42,30.23,7,1,14,0.00
2013-3-14,63,44,26,37,29,24,91,61,30,30.44,30.18,9,2,16,0.00
2013-3-15,77,63,48,54,46,36,67,54,43,30.17,29.89,13,4,22,0.00
2013-3-16,76,66,58,56,53,48,79,63,50,29.92,29.82,16,5,21,0.00
2013-3-17,74,62,53,58,53,49,87,71,55,29.90,29.67,9,2,17,0.01
2013-3-18,68,55,40,61,51,38,95,86,74,30.04,29.67,12,2,23,0.53
2013-3-19,59,47,32,39,31,22,97,60,26,30.20,30.04,10,2,14,0.01
2013-3-20,53,45,32,36,26,10,84,48,27,30.25,30.09,9,2,20,0.00
2013-3-21,48,39,28,32,18,13,91,46,25,30.13,29.95,6,2,12,0.09
2013-3-22,47,42,34,44,40,32,95,92,88,29.99,29.87,9,3,15,0.51
2013-3-23,55,49,45,49,46,43,96,90,81,29.92,29.68,8,2,16,0.40
2013-3-24,50,45,36,49,40,27,97,83,66,29.98,29.55,18,4,23,0.06
2013-3-25,39,36,32,27,25,22,71,63,56,30.27,29.98,20,4,22,0.00
2013-3-26,48,37,28,29,26,22,86,64,45,30.39,30.26,12,2,14,0.00
2013-3-27,58,41,24,35,29,22,94,65,35,30.44,30.30,7,1,12,0.00
2013-3-28,70,52,32,38,34,30,91,55,30,30.36,30.22,8,1,10,0.00
2013-3-29,63,55,51,53,45,35,93,72,39,30.26,30.16,9,2,14,0.24
2013-3-30,58,54,51,57,52,50,98,94,90,30.18,29.93,5,1,9,0.46
2013-3-31,64,57,45,59,54,44,98,91,77,29.96,29.86,6,1,12,0.07
2013-4-1,70,55,39,52,44,38,98,72,43,30.12,29.93,6,1,12,0.00
2013-4-2,53,46,39,40,33,28,91,62,42,30.26,30.10,9,3,16,0.10
2013-4-3,49,44,40,37,31,25,82,61,43,30.23,30.12,9,3,17,0.06
2013-4-4,48,44,41,44,40,31,96,88,51,30.12,29.98,6,1,10,0.28
2013-4-5,70,53,42,47,41,35,98,69,31,30.18,30.06,2,0,9,0.00
2013-4-6,75,59,41,44,41,35,94,57,23,30.10,29.93,16,3,20,0.00
2013-4-7,72,64,58,56,52,44,78,65,52,30.04,29.90,12,4,17,0.00
2013-4-8,80,69,62,60,57,52,83,67,48,29.99,29.86,8,4,18,0.00
2013-4-9,83,74,65,67,64,59,87,73,58,29.98,29.85,9,3,23,0.00
2013-4-10,85,77,70,68,66,64,86,70,52,29.94,29.66,14,4,22,0.07
2013-4-11,72,53,41,66,51,40,96,93,80,29.82,29.66,13,1,23,2.37
2013-4-12,68,52,36,47,42,35,97,73,44,30.01,29.82,10,1,17,0.01
2013-4-13,76,59,44,48,43,39,94,60,32,30.11,29.92,5,1,9,0.00
2013-4-14,70,63,57,56,51,45,85,66,56,29.92,29.74,15,3,22,0.00
2013-4-15,84,68,55,64,59,53,95,75,49,29.93,29.82,10,3,16,0.00
2013-4-16,86,76,68,71,69,64,91,78,59,30.03,29.90,10,3,17,0.00
2013-4-17,87,77,68,71,68,66,95,77,52,30.06,29.84,14,3,21,0.00
2013-4-18,79,69,45,68,61,43,94,78,57,29.86,29.60,18,4,25,2.09
2013-4-19,57,47,41,43,35,31,91,65,42,30.15,29.85,10,1,16,0.00
2013-4-20,70,52,35,45,38,34,96,64,30,30.27,30.15,5,0,10,0.00
2013-4-21,71,59,47,41,38,34,66,47,28,30.34,30.17,6,1,14,0.00
2013-4-22,77,62,44,51,46,39,84,58,36,30.20,30.01,14,2,15,0.00
2013-4-23,75,66,58,63,58,51,89,76,61,30.05,29.89,12,3,18,0.10
2013-4-24,66,50,39,63,44,38,95,83,57,30.30,29.87,5,1,13,1.19
2013-4-25,71,53,34,44,39,33,97,65,28,30.40,30.28,2,0,9,0.00
2013-4-26,70,57,48,52,45,40,83,65,36,30.40,30.21,8,2,18,0.12
2013-4-27,76,63,54,66,58,48,95,84,73,30.22,29.86,12,2,20,0.08
2013-4-28,67,60,50,58,55,48,95,82,66,29.98,29.93,3,0,8,0.00
2013-4-29,82,65,47,59,53,46,98,70,41,30.02,29.88,5,1,8,0.01
2013-4-30,84,71,56,61,56,50,84,61,38,29.95,29.87,9,1,13,0.00
2013-5-1,79,70,63,65,61,55,85,72,61,30.04,29.92,8,1,16,0.00
2013-5-2,68,64,61,62,61,58,97,89,79,30.10,29.99,7,0,9,0.65
2013-5-3,63,47,36,62,45,34,97,94,89,30.01,29.89,7,1,12,3.14
2013-5-4,59,45,33,46,40,32,97,83,54,29.98,29.89,9,1,13,0.05
2013-5-5,62,51,44,50,46,42,96,84,53,29.95,29.87,6,1,14,0.44
2013-5-6,66,58,53,57,54,50,97,87,71,29.96,29.86,5,0,10,0.02
2013-5-7,76,64,50,61,56,50,98,79,52,30.02,29.93,4,0,7,0.01
2013-5-8,84,69,51,64,57,50,97,70,43,30.08,29.99,5,0,10,0.00
2013-5-9,82,71,61,65,61,57,86,72,52,30.07,29.94,12,2,18,0.00
2013-5-10,78,68,64,69,65,62,97,89,71,29.96,29.85,10,2,21,2.76
2013-5-11,76,66,58,64,58,53,97,75,48,30.06,29.92,5,1,13,0.00
2013-5-12,69,59,46,55,40,34,87,51,29,30.23,30.06,8,1,13,0.00
2013-5-13,77,62,42,53,46,40,95,61,34,30.28,30.13,7,1,12,0.00
2013-5-14,88,74,62,61,55,51,71,54,34,30.13,30.01,14,3,18,0.00
2013-5-15,86,76,64,59,56,50,74,50,36,30.11,29.94,13,4,18,0.00
2013-5-16,77,71,64,65,62,58,92,75,56,29.99,29.89,7,1,12,0.01
2013-5-17,82,71,66,70,66,62,96,86,64,29.94,29.88,8,2,14,0.23
2013-5-18,85,75,65,76,71,64,98,87,71,29.98,29.89,5,1,8,0.00
2013-5-19,88,80,72,73,70,67,93,74,52,29.96,29.85,9,3,20,0.00
2013-5-20,88,80,74,74,71,70,90,74,59,29.94,29.81,14,4,17,0.00
2013-5-21,78,70,63,72,67,62,98,92,76,29.96,29.75,9,1,24,5.89
2013-5-22,81,70,62,67,64,61,98,82,58,29.90,29.75,8,2,18,0.06
2013-5-23,84,74,60,66,62,58,96,70,51,30.11,29.90,5,1,12,0.00
2013-5-24,77,66,56,58,52,48,89,64,36,30.28,30.11,10,2,16,0.00
2013-5-25,83,68,52,59,54,49,88,63,36,30.30,30.14,2,0,9,0.00
2013-5-26,87,73,58,61,58,54,92,62,34,30.19,30.07,8,1,10,0.00
2013-5-27,87,76,65,70,63,58,81,66,43,30.09,29.95,9,2,16,0.00
2013-5-28,90,79,70,70,64,58,82,63,35,30.03,29.94,9,3,16,0.00
2013-5-29,89,78,65,71,66,59,81,65,43,30.02,29.91,9,2,15,0.00
2013-5-30,86,77,72,74,70,67,90,79,61,30.01,29.89,13,3,20,0.04
2013-5-31,86,78,68,75,72,66,96,83,66,29.98,29.82,10,2,20,1.01
2013-6-1,83,73,66,74,70,64,96,90,70,29.97,29.78,13,2,21,0.65
2013-6-2,82,72,64,70,66,60,97,81,60,29.96,29.90,2,0,7,0.01
2013-6-3,83,71,59,66,61,58,97,74,48,30.01,29.90,3,0,9,0.00
2013-6-4,89,75,62,67,63,59,90,69,44,30.00,29.89,6,0,7,0.00
2013-6-5,90,78,68,74,69,64,91,75,58,29.93,29.77,7,1,13,0.01
2013-6-6,85,76,68,70,68,65,96,77,56,29.83,29.74,7,1,9,0.00
2013-6-7,84,74,64,66,61,54,79,65,41,29.88,29.76,6,0,10,0.00
2013-6-8,87,74,57,64,58,56,96,62,37,29.98,29.87,6,0,8,0.00
2013-6-9,90,79,68,72,68,60,95,70,47,29.97,29.80,7,2,15,0.00
2013-6-10,94,79,69,72,69,65,97,74,38,29.92,29.85,13,2,17,0.01
2013-6-11,98,86,74,75,72,69,88,64,39,30.01,29.91,8,2,13,0.00
2013-6-12,97,86,75,77,74,72,91,69,46,30.03,29.89,9,2,16,0.00
2013-6-13,95,85,73,77,72,64,82,66,43,29.94,29.86,7,2,14,0.00
2013-6-14,89,77,64,68,62,57,97,63,39,30.03,29.93,12,1,16,0.00
2013-6-15,93,79,62,68,64,60,94,64,40,30.05,29.94,5,1,8,0.00
2013-6-16,92,80,70,75,70,66,88,72,51,30.03,29.92,6,0,12,0.00
2013-6-17,83,76,71,75,72,69,97,87,72,29.98,29.82,8,1,13,0.67
2013-6-18,86,75,68,72,69,67,97,84,57,29.97,29.82,2,0,8,0.00
2013-6-19,94,78,65,72,68,64,97,76,43,30.02,29.94,8,1,22,0.00
2013-6-20,95,82,67,73,69,65,96,69,40,30.11,30.02,6,0,9,0.00
2013-6-21,93,82,71,74,71,68,90,70,48,30.15,30.05,6,1,10,0.00
2013-6-22,94,82,70,74,70,67,91,68,46,30.12,29.99,5,1,13,0.00
2013-6-23,94,82,71,72,69,66,85,67,45,30.09,29.99,6,1,10,0.00
2013-6-24,95,84,73,76,73,70,92,72,49,30.11,29.99,6,1,10,0.00
2013-6-25,94,84,74,75,72,69,92,70,44,30.06,29.92,10,2,16,0.00
2013-6-26,95,85,76,75,72,70,87,66,48,29.98,29.84,12,3,17,0.00
2013-6-27,100,84,72,81,75,69,98,75,52,29.91,29.79,9,2,17,1.33
2013-6-28,90,78,71,78,72,68,98,84,55,29.91,29.70,6,1,17,1.02
2013-6-29,90,80,66,70,65,60,96,62,39,29.75,29.67,6,1,13,0.00
2013-6-30,81,73,65,67,64,61,89,73,57,29.82,29.70,5,0,9,0.00
2013-7-1,82,72,66,69,65,61,95,78,58,29.93,29.80,5,1,10,0.00
2013-7-2,85,73,61,66,63,60,96,72,47,30.02,29.91,5,0,10,0.20
2013-7-3,87,72,61,68,64,60,98,77,43,30.09,30.00,5,0,6,0.00
2013-7-4,90,76,63,72,67,62,97,75,49,30.03,29.93,5,0,12,0.00
2013-7-5,89,75,67,73,68,62,97,81,56,30.05,29.95,6,1,17,0.01
2013-7-6,91,78,67,73,69,64,96,78,50,30.05,29.95,5,1,9,0.00
2013-7-7,90,80,70,76,72,68,96,79,56,30.08,30.01,3,1,9,0.00
2013-7-8,93,81,71,77,74,70,97,80,56,30.14,30.04,5,1,10,0.00
2013-7-9,96,86,76,76,74,72,92,70,46,30.11,29.98,7,2,12,0.00
2013-7-10,98,86,78,80,75,70,81,69,49,30.03,29.86,8,1,13,0.00
2013-7-11,97,84,75,78,72,64,89,69,49,29.94,29.87,6,0,10,0.00
2013-7-12,89,78,65,67,63,60,84,61,43,30.01,29.92,7,1,14,0.00
2013-7-13,89,77,63,64,61,59,88,61,39,30.02,29.93,5,1,13,0.00
2013-7-14,90,78,67,73,69,62,90,74,53,30.06,29.95,7,1,13,0.00
2013-7-15,92,80,73,77,74,71,96,83,57,30.17,30.05,8,1,13,0.69
2013-7-16,94,82,72,76,73,70,96,76,51,30.24,30.16,6,1,13,0.01
2013-7-17,98,85,71,77,73,70,96,69,43,30.28,30.13,5,0,10,0.00
2013-7-18,93,78,71,78,74,70,97,86,58,30.17,30.03,7,0,16,0.34
2013-7-19,91,80,70,76,73,70,98,80,57,30.07,29.92,6,1,10,0.00
2013-7-20,94,83,73,76,74,71,95,75,52,29.96,29.83,8,1,13,0.00
2013-7-21,94,84,73,76,73,70,93,72,49,29.95,29.86,9,2,17,0.00
2013-7-22,87,79,72,76,74,70,97,85,63,29.95,29.85,9,2,15,2.07
2013-7-23,90,78,69,78,74,68,97,87,65,29.98,29.82,8,1,12,0.84
2013-7-24,87,80,74,76,74,68,97,82,64,29.94,29.84,3,0,7,0.00
2013-7-25,86,75,64,68,64,60,95,70,47,30.06,29.94,3,0,9,0.00
2013-7-26,86,73,60,68,65,59,97,76,52,30.06,29.95,3,0,7,0.00
2013-7-27,90,76,68,71,68,66,95,78,52,29.99,29.88,2,0,7,0.11
2013-7-28,86,75,68,67,64,62,84,71,51,30.05,29.93,6,1,9,0.00
2013-7-29,92,78,68,70,66,61,81,68,46,30.14,30.04,3,1,7,0.00
2013-7-30,85,79,73,75,71,67,88,77,63,30.11,30.00,6,1,9,0.01
2013-7-31,92,80,74,79,74,71,95,82,61,30.04,29.90,8,1,10,0.59
2013-8-1,90,79,69,76,71,67,98,79,54,30.03,29.94,5,0,8,0.00
2013-8-2,92,79,65,73,69,64,98,74,48,30.01,29.93,5,0,9,0.00
2013-8-3,88,78,73,76,72,70,93,82,67,30.05,29.91,6,1,13,0.00
2013-8-4,90,80,69,76,72,68,98,81,59,30.09,30.01,5,0,8,0.01
2013-8-5,84,77,73,77,72,68,95,85,71,30.04,29.89,3,1,10,0.43
2013-8-6,88,81,74,80,76,73,96,85,71,29.94,29.85,5,1,8,0.01
2013-8-7,96,84,76,79,76,73,93,78,52,29.94,29.84,5,1,9,0.00
2013-8-8,98,86,77,79,77,75,94,76,51,29.93,29.84,6,1,10,0.00
2013-8-9,98,86,76,80,76,72,93,73,46,30.00,29.90,5,1,10,0.00
2013-8-10,93,81,75,76,74,72,94,80,52,30.11,29.98,3,0,8,0.04
2013-8-11,93,79,74,80,75,72,96,88,63,30.10,30.02,12,0,13,0.61
2013-8-12,93,81,72,79,74,70,95,83,60,30.04,29.92,8,2,14,0.09
2013-8-13,86,78,71,77,72,68,97,84,65,30.00,29.91,3,0,7,0.01
2013-8-14,82,73,66,68,61,57,86,68,47,30.06,29.95,7,2,14,0.00
2013-8-15,83,69,56,60,58,54,93,69,43,30.07,29.99,3,0,12,0.00
2013-8-16,85,72,59,69,64,57,96,80,54,30.04,29.97,5,1,9,0.00
2013-8-17,82,73,66,72,67,64,96,83,64,30.07,30.00,5,1,9,0.01
2013-8-18,87,73,65,71,68,64,97,84,57,30.11,30.02,2,0,7,0.00
2013-8-19,90,77,64,71,68,63,98,78,51,30.09,29.98,3,0,8,0.00
2013-8-20,91,80,67,74,71,66,98,76,53,30.08,30.00,3,0,7,0.00
2013-8-21,94,81,71,77,72,70,95,77,49,30.12,30.02,2,0,6,0.00
2013-8-22,94,81,72,78,74,71,95,78,51,30.11,29.99,5,0,16,0.00
2013-8-23,95,82,69,76,72,68,98,74,44,30.05,29.96,5,0,10,0.00
2013-8-24,94,83,72,77,73,71,96,74,52,30.12,30.02,7,1,10,0.00
2013-8-25,92,80,74,76,73,71,93,79,55,30.24,30.12,6,1,9,0.00
2013-8-26,92,81,70,72,70,67,95,71,45,30.24,30.11,5,1,7,0.00
2013-8-27,92,80,67,70,67,64,90,66,47,30.14,30.02,6,1,8,0.00
2013-8-28,95,81,65,70,67,64,95,66,41,30.08,30.00,5,0,8,0.00
2013-8-29,96,82,68,74,70,66,94,70,45,30.07,29.95,6,0,8,0.00
2013-8-30,98,84,70,74,72,69,97,69,43,30.00,29.87,5,0,9,0.00
2013-8-31,98,86,74,75,72,69,89,66,44,29.91,29.80,8,2,13,0.00
2013-9-1,98,84,77,76,73,71,81,70,47,29.89,29.78,10,2,23,0.00
2013-9-2,92,82,75,76,74,72,94,77,57,29.92,29.81,12,2,15,0.06
2013-9-3,91,79,65,72,66,59,96,68,38,30.01,29.89,6,0,9,0.00
2013-9-4,90,76,63,68,64,61,94,70,45,30.11,30.00,7,1,12,0.00
2013-9-5,93,80,64,68,65,61,91,64,43,30.14,30.06,4,1,14,0.00
2013-9-6,95,79,67,68,66,64,90,67,39,30.13,30.01,2,0,8,0.00
2013-9-7,97,81,65,70,66,63,94,65,34,30.06,29.94,5,1,8,0.00
2013-9-8,99,84,68,72,69,65,92,63,37,29.98,29.87,5,1,9,0.00
2013-9-9,94,84,74,74,71,68,83,66,50,30.01,29.92,7,1,10,0.00
2013-9-10,98,82,74,74,71,69,85,70,42,30.11,30.00,7,1,13,0.01
2013-9-11,96,82,73,76,72,69,93,73,47,30.14,30.03,5,0,8,0.00
2013-9-12,96,82,72,74,71,68,92,70,45,30.05,29.91,5,1,10,0.00
2013-9-13,86,75,66,71,61,55,89,64,38,30.00,29.92,6,1,13,0.00
2013-9-14,79,66,54,55,52,49,90,62,37,30.08,30.00,6,1,17,0.00
2013-9-15,90,69,51,58,54,49,96,64,28,30.10,30.03,5,1,12,0.00
2013-9-16,93,75,59,68,59,51,89,64,24,30.13,30.06,9,1,14,0.00
2013-9-17,93,79,66,68,65,62,95,67,37,30.14,30.00,4,1,8,0.00
2013-9-18,90,79,70,74,70,66,93,75,55,30.08,29.98,6,1,12,0.00
2013-9-19,94,80,69,73,69,67,94,71,42,30.08,29.93,8,1,14,0.00
2013-9-20,78,73,69,74,70,67,97,90,69,29.97,29.81,5,0,7,1.85
2013-9-21,78,68,56,69,59,54,98,76,45,29.91,29.79,8,1,16,0.16
2013-9-22,79,65,52,56,54,49,96,70,42,29.94,29.85,15,1,16,0.00
2013-9-23,84,69,55,62,58,52,90,69,44,29.95,29.85,5,1,10,0.00
2013-9-24,82,72,66,73,68,61,97,88,72,29.89,29.78,7,1,8,0.19
2013-9-25,85,74,66,71,67,63,97,81,53,29.83,29.76,6,0,8,0.00
2013-9-26,88,74,62,72,66,61,98,79,50,29.97,29.82,2,0,7,0.00
2013-9-27,87,73,62,70,65,61,98,76,46,30.07,29.97,6,0,9,0.00
2013-9-28,85,73,63,64,62,60,91,71,48,30.11,30.00,7,1,12,0.00
2013-9-29,70,67,65,66,63,60,96,87,75,30.03,29.94,5,1,8,0.11
2013-9-30,77,69,65,70,67,64,97,93,80,29.96,29.90,4,1,12,0.06
2013-10-1,85,74,66,73,69,65,95,86,65,30.05,29.94,7,1,12,0.00
2013-10-2,85,75,69,70,68,65,93,80,54,30.09,30.00,8,1,9,0.00
2013-10-3,88,76,65,73,69,64,96,80,58,30.04,29.93,6,1,12,0.00
2013-10-4,86,76,69,74,71,68,97,86,67,30.04,29.95,5,1,12,0.00
2013-10-5,89,79,72,73,72,70,95,80,55,30.01,29.86,8,1,13,0.06
2013-10-6,74,62,54,72,54,46,95,76,46,29.99,29.87,8,0,9,0.70
2013-10-7,70,56,45,54,49,44,98,79,52,30.11,29.96,4,0,10,0.00
2013-10-8,74,59,46,54,50,45,97,75,46,30.15,30.05,9,1,13,0.00
2013-10-9,79,65,55,66,60,51,96,82,63,30.14,30.05,7,1,9,0.00
2013-10-10,82,68,57,66,61,56,98,82,48,30.14,30.00,4,0,8,0.00
2013-10-11,83,68,56,66,60,55,98,79,50,30.05,29.95,6,1,9,0.01
2013-10-12,76,66,60,69,64,58,97,91,78,30.12,29.97,5,0,9,0.25
2013-10-13,79,69,61,68,63,55,98,83,62,30.25,30.11,5,1,12,0.01
2013-10-14,84,69,57,65,60,52,88,74,51,30.21,30.04,5,1,9,0.00
2013-10-15,73,69,67,66,65,63,96,85,75,30.05,29.94,10,1,13,0.45
2013-10-16,67,60,56,66,58,55,97,93,83,30.01,29.93,5,0,9,0.85
2013-10-17,69,58,47,57,53,46,96,85,56,30.03,29.95,2,0,9,0.01
2013-10-18,72,57,42,54,49,42,98,78,47,30.08,29.94,6,0,8,0.00
2013-10-19,59,52,39,54,47,38,96,85,59,30.08,29.92,5,0,9,0.02
2013-10-20,68,50,37,47,42,36,98,77,41,30.13,30.00,6,0,9,0.01
2013-10-21,74,57,42,54,48,41,97,74,43,30.08,29.97,5,1,10,0.00
2013-10-22,68,58,52,53,48,42,94,72,40,30.07,29.90,6,1,10,0.02
2013-10-23,60,50,41,48,41,38,94,73,47,30.17,29.95,4,0,10,0.00
2013-10-24,65,51,40,48,42,34,95,72,49,30.38,30.11,5,0,12,0.00
2013-10-25,54,42,32,34,31,28,92,68,36,30.53,30.33,6,1,10,0.00
2013-10-26,65,51,34,50,40,32,94,69,46,30.33,30.10,9,1,13,0.00
2013-10-27,67,58,51,58,54,49,96,87,71,30.10,30.01,4,0,7,0.00
2013-10-28,70,60,55,60,56,54,97,87,65,30.21,30.06,4,0,6,0.00
2013-10-29,75,64,55,68,61,54,97,89,77,30.23,30.10,5,1,10,0.00
2013-10-30,75,68,62,67,64,60,94,85,75,30.17,29.94,5,1,14,0.00
2013-10-31,71,67,61,68,64,53,96,91,70,29.94,29.57,16,5,25,1.98
2013-11-1,73,59,46,54,50,45,98,76,42,29.89,29.76,7,1,16,0.00
2013-11-2,61,51,39,48,43,37,96,76,54,30.21,29.89,7,1,14,0.00
2013-11-3,62,47,34,44,39,33,98,78,44,30.32,30.16,6,1,9,0.00
2013-11-4,66,55,44,49,44,39,84,69,48,30.29,30.19,8,1,14,0.00
2013-11-5,72,62,54,55,50,46,76,67,54,30.29,30.12,7,2,15,0.00
2013-11-6,61,57,45,60,52,41,96,84,69,30.27,30.03,10,3,15,0.32
2013-11-7,56,45,34,41,37,33,96,75,45,30.41,30.26,9,1,13,0.00
2013-11-8,64,47,31,43,37,30,98,72,39,30.40,30.21,5,0,8,0.01
2013-11-9,61,50,41,45,42,37,93,73,47,30.30,30.20,5,1,14,0.00
2013-11-10,68,52,41,50,44,37,97,75,43,30.35,30.26,6,1,12,0.00
2013-11-11,71,53,39,48,43,36,95,71,37,30.31,30.16,8,0,9,0.00
2013-11-12,55,40,30,49,30,22,95,70,46,30.67,30.22,12,3,20,0.00
2013-11-13,49,34,24,25,23,20,93,68,32,30.72,30.45,6,1,9,0.00
2013-11-14,57,41,22,29,24,20,95,57,26,30.45,30.15,12,1,13,0.00
2013-11-15,60,51,44,52,45,29,96,80,54,30.17,30.02,7,1,10,0.07
2013-11-16,68,61,52,65,59,50,97,92,87,30.05,29.85,12,3,20,0.00
2013-11-17,77,69,60,71,63,38,96,83,40,29.99,29.71,15,5,25,0.90
2013-11-18,64,52,40,40,36,30,86,55,35,30.24,29.99,6,1,14,0.00
2013-11-19,52,45,33,30,29,25,86,54,35,30.31,30.16,8,1,14,0.00
2013-11-20,64,50,32,43,36,28,86,62,40,30.19,30.07,9,1,14,0.00
2013-11-21,68,58,50,59,53,42,96,82,70,30.20,30.10,8,2,15,0.01
2013-11-22,60,53,43,59,51,40,97,93,87,30.39,30.15,8,2,18,0.73
2013-11-23,45,40,28,40,31,18,92,71,41,30.57,30.36,10,4,20,0.00
2013-11-24,36,30,22,19,17,15,73,59,43,30.67,30.42,10,3,20,0.00
2013-11-25,36,34,32,34,27,17,94,77,54,30.45,30.12,8,1,8,0.20
2013-11-26,40,36,33,36,33,24,95,87,65,30.16,29.96,13,2,23,0.06
2013-11-27,33,27,18,25,17,14,91,67,51,30.42,30.15,8,2,18,0.00
2013-11-28,45,31,17,26,21,15,93,69,41,30.50,30.40,7,1,12,0.00
2013-11-29,57,38,24,33,28,22,93,72,40,30.58,30.43,7,0,9,0.00
2013-11-30,58,44,26,34,30,24,95,62,36,30.45,30.22,10,1,13,0.00
2013-12-1,60,51,38,46,39,31,78,62,50,30.22,29.91,10,2,13,0.00
2013-12-2,60,54,45,54,49,42,97,84,68,29.92,29.71,2,0,7,0.00
2013-12-3,60,54,47,58,53,46,98,96,93,29.76,29.67,6,1,10,0.00
2013-12-4,74,68,59,65,63,58,96,85,72,29.82,29.67,17,4,23,0.01
2013-12-5,70,48,33,66,45,32,95,89,78,30.15,29.81,8,3,16,0.02
2013-12-6,34,30,24,32,28,22,95,94,92,30.46,30.07,7,2,16,0.99
2013-12-7,29,25,21,27,23,19,94,91,89,30.58,30.33,7,2,13,0.00
2013-12-8,33,32,29,32,30,27,97,95,94,30.35,30.08,5,0,7,0.00
2013-12-9,33,31,30,30,29,28,96,90,84,30.31,30.17,7,1,13,0.00
2013-12-10,39,29,22,30,24,20,95,83,66,30.47,30.24,4,0,10,0.01
2013-12-11,46,32,20,34,27,19,96,81,56,30.60,30.40,5,0,13,0.01
2013-12-12,46,32,20,24,19,13,90,63,32,30.64,30.38,6,1,13,0.00
2013-12-13,48,36,23,38,27,20,94,72,39,30.39,29.87,17,1,18,0.75
2013-12-14,44,40,34,43,37,30,97,90,83,30.17,29.81,17,2,23,0.60
2013-12-15,40,34,31,31,29,28,93,83,71,30.30,30.16,5,1,10,0.00
2013-12-16,57,45,31,40,36,29,93,72,51,30.24,30.14,14,4,18,0.00
2013-12-17,60,46,31,42,37,30,95,72,49,30.31,30.17,9,2,14,0.00
2013-12-18,60,46,29,39,34,27,97,66,40,30.36,30.11,8,2,17,0.00
2013-12-19,61,54,47,54,46,39,80,75,62,30.15,29.93,7,3,20,0.00
2013-12-20,68,64,60,64,60,54,95,87,79,29.98,29.78,12,4,20,0.39
2013-12-21,76,66,53,67,62,52,97,87,71,29.80,29.46,17,5,28,1.43
2013-12-22,55,48,36,52,45,30,97,90,79,30.27,29.71,7,1,14,0.01
2013-12-23,38,32,23,31,26,22,94,78,65,30.53,30.25,6,1,14,0.00
2013-12-24,36,28,23,24,19,16,96,70,45,30.63,30.42,6,1,12,0.00
2013-12-25,50,35,22,32,24,16,92,66,42,30.45,30.32,5,1,14,0.00
2013-12-26,48,35,26,32,27,24,96,77,43,30.46,30.36,7,1,10,0.00
2013-12-27,56,38,24,32,28,22,94,71,36,30.49,30.36,4,0,7,0.00
2013-12-28,47,40,31,41,35,28,95,82,60,30.37,29.97,6,0,8,0.04
2013-12-29,55,44,34,43,39,29,97,82,65,30.21,29.97,7,1,13,0.03
2013-12-30,34,30,28,29,26,23,87,82,78,30.38,30.20,6,1,12,0.00
2013-12-31,49,32,21,32,26,19,96,79,48,30.49,30.32,5,0,7,0.01
2014-1-1,54,42,26,45,34,24,95,74,46,30.32,29.95,7,2,13,0.01
2014-1-2,51,34,21,48,27,14,95,76,62,30.48,29.90,13,2,21,0.17